Flag for U.S.A. Weather past 2 weeks in Sunrise Manor, Nevada, U.S.A.

Now
94 °F

Sunny.


Feels Like: 92 °F
Forecast: 82 / 100 °F
Wind: 10 mph from Southwest

Location: Nellis Air Force Base

Current Time: Jul 29, 2015 at 8:04:04 PM

Latest Report: Jul 29, 2015 at 6:58 PM


Visibility: 10 mi

Pressure: 29.83 "Hg (28.05 "Hg at 555m altitude)

Humidity: 25%

Dew point: 53 °F

Location of Sunrise ManorLocation

Historic Weather in Sunrise Manor — Graph

°F

Sunrise Manor temperature yesterday

Maximum temperature yesterday: 100 °F (at 3:58 PM)
Minimum temperature yesterday: 78 °F (at 3:58 AM)
Average temperature yesterday: 89 °F

Past Weeks' High & Low Weather Summary

 TemperatureHumidityPressure
High104 °F (Jul 17, 2:58 PM)70% (Jul 19, 5:58 AM)30.10 "Hg (Jul 19, 5:58 AM)
Low73 °F (Jul 19, 5:58 AM)5% (Jul 15, 4:58 PM)29.58 "Hg (Jul 17, 6:58 PM)
Average90 °F23%29.79 "Hg
* Reported Jul 14 5:58 PM — Jul 29 5:58 PM, Sunrise Manor, Weather by CustomWeather, © 2015

Note: Actual official high and low records may vary slightly from our data, if they occured in-between our weather recording intervals... More about our weather records

Advertising

Sunrise Manor weather history for previous 24 hours

 ConditionsComfort  
Time TempWeatherWind HumidityBarometerVisibility
5:58 PM
Wed, Jul 29
96 °FSunny.16 mph24%29.83 "Hg10 mi
4:58 PM101 °FSunny.10 mph12%29.83 "Hg10 mi
3:58 PM102 °FSunny.6 mph11%29.83 "Hg10 mi
2:58 PM102 °FSunny.5 mph11%29.85 "Hg10 mi
1:58 PM101 °FSunny.3 mph13%29.88 "Hg10 mi
12:58 PM100 °FSunny.5 mph10%29.90 "Hg10 mi
11:58 AM98 °FSunny.7 mph9%29.92 "Hg10 mi
10:58 AM97 °FSunny.10 mph8%29.92 "Hg10 mi
9:58 AM95 °FSunny.16 mph9%29.92 "Hg10 mi
8:58 AM93 °FSunny.13 mph10%29.92 "Hg10 mi
7:58 AM87 °FSunny.6 mph14%30.00 "Hg10 mi
6:58 AM79 °FSunny.No wind17%29.98 "Hg10 mi
5:58 AM79 °FClear.1 mph17%29.96 "Hg10 mi
4:58 AM85 °FClear.10 mph14%29.93 "Hg10 mi
3:58 AM83 °FClear.10 mph14%29.83 "Hg10 mi
2:58 AM81 °FClear.6 mph14%29.82 "Hg10 mi
1:58 AM79 °FClear.6 mph14%29.81 "Hg10 mi
12:58 AM82 °FClear.2 mph13%29.81 "Hg10 mi
11:58 PM
Tue, Jul 28
88 °FClear.7 mph11%29.82 "Hg10 mi
10:58 PM90 °FClear.5 mph10%29.81 "Hg10 mi
9:58 PM90 °FClear.6 mph10%29.79 "Hg10 mi
8:58 PM93 °FClear.3 mph9%29.77 "Hg10 mi
Weather by CustomWeather, © 2015

See weather overviewHow to use our weather pages